Change the Weather History Date:

Friday, March 22, 2013

  Actual Average Record
Temperature  
Mean Temperature 30 °F -  
Max Temperature 35 °F 39 °F 69 °F (2012)
Min Temperature 26 °F 28 °F 17 °F (2002)
Degree Days  
Heating Degree Days 34    
Moisture  
Dew Point 21 °F    
Average Humidity 68    
Maximum Humidity 75    
Minimum Humidity 61    
Precipitation  
Precipitation 0.00 in - - ()
Sea Level Pressure  
Sea Level Pressure 29.94 in    
Wind  
Wind Speed 9 mph (WNW)    
Max Wind Speed 12 mph    
Max Gust Speed 23 mph    
Averages and records for this station are not official NWS values.
T = Trace of Precipitation, MM = Missing Value Source: NWS Daily Summary

Daily Weather History Graph

Daily Weather History Graph

Search for Another Location

Airport or City:

Trip Planner

Search our weather history database for the weather conditions in past years. The results will help you decide how hot, cold, wet, or windy it might be!

Date:

Astronomy

Mar. 22, 2013 Rise Set
Actual Time 7:30 AM EDT 7:46 PM EDT
Civil Twilight 7:01 AM EDT 8:15 PM EDT
Nautical Twilight 6:27 AM EDT 8:49 PM EDT
Astronomical Twilight 5:52 AM EDT 9:24 PM EDT
Moon 3:04 PM EDT (3/22) 4:38 AM EDT (3/22)
Length of Visible Light 13h 13m
Length of Day
12h 16m
Waxing Gibbous, 77% of the Moon is Illuminated
Mar 22
Waxing Gibbous
Mar 27
Full
Apr 3
Last Quarter
Apr 10
New
Apr 18
First Quarter

Hourly Weather History & Observations

Time (EDT) Temp. Windchill Dew Point Humidity Pressure Visibility Wind Dir Wind Speed Gust Speed Precip Events Conditions
12:51 AM 26.1 °F 16.8 °F 18.0 °F 71% 29.88 in - WNW 9.2 mph 18.4 mph N/A   Unknown
1:51 AM 26.1 °F 15.6 °F 17.1 °F 69% 29.89 in - WNW 11.5 mph 23.0 mph N/A   Unknown
2:51 AM 26.1 °F 16.8 °F 16.0 °F 66% 29.89 in - WNW 9.2 mph 20.7 mph N/A   Unknown
3:51 AM 26.1 °F 17.6 °F 16.0 °F 66% 29.89 in - WNW 8.1 mph 17.3 mph N/A   Unknown
4:51 AM 26.1 °F 16.8 °F 17.1 °F 69% 29.88 in - West 9.2 mph 16.1 mph N/A   Unknown
5:51 AM 26.1 °F 17.6 °F 18.0 °F 71% 29.89 in - West 8.1 mph - N/A   Unknown
6:51 AM 27.0 °F 17.3 °F 19.0 °F 72% 29.91 in - WNW 10.4 mph 17.3 mph N/A   Unknown
7:51 AM 27.0 °F 18.7 °F 19.0 °F 72% 29.91 in - WNW 8.1 mph - N/A   Unknown
8:51 AM 28.0 °F 18.1 °F 19.9 °F 72% 29.92 in - WNW 11.5 mph 18.4 mph N/A   Unknown
9:51 AM 28.0 °F 18.6 °F 21.0 °F 75% 29.94 in - WNW 10.4 mph 19.6 mph N/A   Unknown
10:51 AM 28.9 °F 21.1 °F 19.9 °F 69% 29.94 in - WNW 8.1 mph - N/A   Unknown
11:51 AM 30.0 °F 21.7 °F 21.0 °F 69% 29.94 in - NW 9.2 mph - N/A   Unknown
12:51 PM 30.9 °F 24.3 °F 21.9 °F 69% 29.94 in - WNW 6.9 mph - N/A   Unknown
1:51 PM 32.0 °F 26.4 °F 21.9 °F 66% 29.94 in - West 5.8 mph - N/A   Unknown
2:51 PM 34.0 °F 25.5 °F 21.9 °F 61% 29.93 in - West 11.5 mph 18.4 mph N/A   Unknown
3:51 PM 35.1 °F 27.9 °F 23.0 °F 61% 29.94 in - West 9.2 mph 16.1 mph N/A   Unknown
4:51 PM 34.0 °F 26.0 °F 21.9 °F 61% 29.94 in - West 10.4 mph 18.4 mph N/A   Unknown
5:51 PM 34.0 °F 28.0 °F 23.0 °F 64% 29.95 in - Variable 6.9 mph - N/A   Unknown
6:51 PM 33.1 °F 26.9 °F 24.1 °F 70% 29.96 in - West 6.9 mph - N/A   Unknown
7:51 PM 33.1 °F 26.9 °F 23.0 °F 66% 29.97 in - WNW 6.9 mph - N/A   Unknown
8:51 PM 33.1 °F 27.7 °F 24.1 °F 70% 29.99 in - WNW 5.8 mph - N/A   Unknown
9:51 PM 33.1 °F 28.7 °F 23.0 °F 66% 30.00 in - WNW 4.6 mph - N/A   Unknown
10:51 PM 32.0 °F 25.6 °F 24.1 °F 73% 30.01 in - WNW 6.9 mph - N/A   Unknown
11:51 PM 32.0 °F 26.4 °F 23.0 °F 69% 30.01 in - NW 5.8 mph - N/A   Unknown